Location: Cambridge (historical)
(38.6883°N, 119.0140°W)
Time: 12:06:26
(UTC+00:00)

COSMOS 2406 - Pass Details

Date: 29 October 2020
Orbit: 843 x 864 km, 71.0° (Epoch: 01 December)

Event Time Altitude Azimuth Distance (km) Brightness Sun altitude
Exits shadow 12:41:42 23° 320° (NW) 1,713 4.4 -19.8°
Drops below altitude 10° 12:45:17 10° 358° (N) 2,470 5.6 -19.1°
Sets 12:48:13 0° 12° (NNE) 3,411 6.5 -18.5°
